Theta_e
357 356 356 358 355 356 351 348 321 330 329 318 320 323 323 335 333 328 328 333 328 334 333 333 333 333 333 329 330 331 332 330 330 321 321 336 351 351 354 352 351 353 356 355 358 362 365 365 364 364 364 364 363 363 362 362 361 356 351 358 360 361 360 363 363 363 363 363 362 362 359 360 359 360 360 359 358 358 359 360 358 356 358 362 362 361 362 362 361 362 362 363 363 363 363 364 364
356 357 357 356 356 352 338 347 327 324 324 320 319 326 327 332 329 326 327 330 328 329 332 336 337 335 336 335 333 333 331 335 336 333 337 345 350 351 350 350 351 352 354 354 357 356 359 366 364 364 364 365 365 362 361 362 359 355 353 359 363 363 363 364 363 363 363 362 362 362 361 359 358 360 360 359 358 357 359 359 359 359 359 361 361 361 361 361 362 362 361 361 363 363 363 363 364
355 355 351 354 353 344 342 340 320 321 316 316 321 325 333 327 326 331 331 331 330 333 336 334 335 334 332 333 330 329 324 336 335 337 338 346 343 348 351 353 354 355 353 352 352 353 360 366 364 364 364 364 364 364 363 360 358 361 360 362 363 363 363 363 363 363 362 362 362 362 361 360 359 359 359 360 360 359 359 359 358 358 359 361 360 361 362 362 361 361 362 364 363 364 362 363 363
360 352 352 351 340 346 333 333 325 323 317 316 321 327 329 327 330 333 334 331 333 336 335 334 332 339 333 328 328 333 331 331 336 337 337 341 343 348 350 354 358 352 353 352 351 354 359 364 364 364 364 364 364 363 364 362 361 360 362 363 362 362 362 362 362 363 363 362 362 361 360 358 358 359 361 360 361 361 358 360 360 358 358 360 362 361 362 363 363 362 363 363 364 363 362 363 363
357 353 351 348 344 331 330 328 324 327 316 319 319 327 331 332 331 332 332 332 335 337 336 335 334 338 340 337 336 329 328 334 335 339 340 345 348 348 350 354 354 352 353 353 354 355 361 364 364 364 364 364 364 363 363 363 361 358 360 359 362 363 363 363 362 361 360 360 361 361 361 360 360 359 360 361 361 361 360 360 361 361 360 360 362 362 362 362 363 364 362 361 362 361 363 363 363
354 354 357 351 338 345 334 325 323 319 327 328 325 326 333 333 333 332 331 334 337 338 337 336 332 334 333 334 334 328 333 327 337 341 343 341 346 349 351 355 353 353 354 357 355 354 358 364 364 364 363 363 362 359 359 359 361 359 358 359 360 362 362 363 362 361 360 360 361 361 360 361 361 359 359 360 361 361 361 360 360 359 360 361 361 361 361 361 363 363 363 362 362 362 362 362 362
350 350 351 349 348 342 322 324 322 322 328 334 328 331 334 333 333 332 330 333 337 338 340 335 336 333 328 334 337 340 340 339 339 342 344 346 349 351 353 353 355 355 356 356 355 355 360 364 364 364 363 362 359 358 358 358 356 358 359 359 359 362 363 362 362 361 360 359 359 359 359 360 360 361 362 361 360 361 361 361 360 360 360 360 361 361 362 361 362 363 361 360 361 361 362 362 363
358 345 344 334 332 332 326 325 322 327 329 332 336 335 336 335 336 332 330 330 330 332 335 337 338 334 331 338 328 336 340 344 344 346 347 348 350 351 353 355 354 354 356 358 359 360 367 364 364 363 363 360 360 360 360 361 359 357 359 361 361 362 362 362 361 361 360 359 359 359 358 360 359 360 361 361 360 360 361 361 360 359 360 360 361 361 361 361 362 363 363 362 362 361 362 363 364
352 347 348 334 326 329 324 327 325 334 331 336 337 342 340 338 337 334 331 332 333 335 335 336 336 329 329 330 331 339 341 344 346 348 348 349 350 353 354 355 353 353 355 357 356 358 361 365 364 363 363 362 361 361 361 359 359 360 360 361 362 362 361 360 360 359 359 359 360 360 359 359 359 359 358 358 359 360 360 360 360 360 360 360 360 361 361 361 360 361 362 361 361 362 362 363 364
348 347 333 333 330 320 322 322 324 328 330 336 336 340 341 340 337 339 332 331 332 335 335 339 340 332 332 328 332 338 339 345 345 346 348 349 352 353 354 353 354 353 355 354 356 357 361 367 365 364 363 362 360 360 358 359 358 359 357 361 361 361 359 358 359 359 359 360 360 359 359 360 360 358 353 357 360 360 361 361 360 360 360 360 360 361 361 361 362 362 360 361 361 362 362 363 363
338 347 343 330 323 319 317 321 324 331 331 336 338 344 345 342 339 336 337 335 335 333 336 339 334 330 329 330 334 343 344 344 344 343 348 350 353 353 353 356 354 355 353 353 356 356 359 365 365 362 362 362 361 361 361 360 361 361 361 361 361 360 358 359 360 360 360 360 360 359 359 359 359 355 355 355 359 359 359 358 358 360 359 359 360 360 361 362 361 362 361 361 362 362 362 363 363
335 336 338 326 326 320 323 322 326 331 334 335 333 342 345 342 340 335 335 333 334 333 334 338 333 337 331 330 332 340 342 342 343 346 348 350 350 353 354 354 354 353 353 354 353 354 360 364 363 364 361 361 361 359 359 359 359 360 360 360 359 360 359 359 359 359 360 359 360 360 359 358 356 354 355 358 359 358 358 358 359 359 359 359 360 361 361 361 360 361 361 362 362 362 362 363 363
338 340 331 327 322 323 326 325 327 329 330 332 334 342 346 341 337 337 338 337 337 333 334 339 337 335 326 329 335 338 338 343 345 347 348 347 347 350 351 353 352 353 354 354 353 354 358 360 362 363 361 360 359 360 359 358 359 360 360 359 360 360 361 361 361 361 360 359 360 359 358 356 355 353 356 357 356 356 358 359 359 359 359 360 361 360 360 359 360 362 362 361 361 361 362 363 363
337 339 335 325 332 328 324 326 330 324 325 334 340 344 344 339 338 339 338 335 335 334 339 340 338 336 331 331 331 333 337 343 345 346 347 347 348 348 348 350 353 354 355 355 354 355 358 360 363 365 365 365 365 362 359 359 359 359 357 355 355 357 361 361 361 361 360 360 358 358 357 355 353 356 358 358 358 359 359 359 360 360 360 361 360 359 359 359 360 361 361 361 362 362 362 363 363
337 345 336 331 325 326 326 323 324 324 328 334 341 342 340 341 342 341 340 335 336 342 342 346 339 332 324 328 327 332 337 342 344 345 347 347 347 347 349 351 353 355 354 352 353 356 358 364 360 365 365 364 364 363 365 363 360 356 356 356 355 357 360 359 359 359 359 360 359 357 358 357 356 357 358 356 359 360 360 358 358 359 359 359 360 359 358 358 359 360 361 362 362 361 362 362 363
342 340 336 327 323 322 327 327 328 326 328 338 341 343 341 342 344 340 341 343 339 343 342 337 341 333 331 330 332 336 339 342 344 346 346 347 348 348 349 351 353 353 352 351 352 357 358 357 361 362 364 364 362 361 366 365 360 356 356 355 354 357 357 357 357 358 360 360 358 356 355 356 359 358 359 358 360 361 359 357 359 360 360 359 359 358 357 356 358 360 361 362 363 362 362 362 362
345 343 327 330 322 325 326 327 328 322 333 339 344 343 338 337 345 346 349 345 336 336 340 340 337 337 332 334 338 339 341 344 346 345 345 346 346 345 349 351 353 352 350 351 354 355 358 360 362 363 365 364 361 361 364 364 360 357 356 353 354 357 356 358 359 359 359 359 356 357 356 354 355 358 357 357 359 359 360 360 359 359 360 359 358 356 354 354 355 356 360 362 364 363 363 363 362
343 332 329 324 326 326 328 327 330 334 331 337 341 342 339 337 341 341 342 338 338 337 337 339 341 337 338 339 341 341 343 343 344 344 343 343 344 344 345 349 351 347 348 350 351 356 358 361 362 362 363 364 363 360 361 364 359 358 361 356 356 356 355 356 357 359 359 359 358 359 359 357 357 358 359 361 361 359 359 361 359 359 359 359 358 356 356 355 354 356 360 362 364 365 365 363 363
334 331 330 321 328 331 338 336 335 333 333 335 339 341 337 339 338 339 333 332 334 334 336 338 336 336 338 339 340 340 342 342 343 343 342 341 341 342 345 350 349 346 347 348 352 356 358 359 361 360 363 365 363 362 361 363 359 356 355 360 357 354 358 360 360 359 360 360 359 360 362 360 357 358 358 358 359 360 359 360 361 360 358 358 357 357 356 356 356 358 362 365 365 367 366 361 358
336 331 326 325 331 332 334 339 336 340 339 337 338 340 341 338 337 342 332 330 333 331 332 334 332 333 335 337 338 340 340 342 342 341 340 340 342 342 344 345 346 347 346 348 350 355 360 357 359 359 361 361 363 361 361 363 362 357 357 359 358 359 359 360 362 360 360 361 360 359 359 363 358 358 359 358 359 359 357 359 361 362 359 358 357 354 355 356 359 363 364 364 365 365 363 363 359
337 330 326 329 333 331 333 335 337 341 341 338 337 339 337 339 337 339 334 329 329 333 336 335 333 334 335 337 338 338 339 340 341 340 339 341 342 343 344 344 345 346 348 349 350 354 356 356 357 361 360 362 361 361 361 360 361 363 361 358 356 358 359 360 362 363 361 360 360 360 361 361 361 356 357 358 359 357 358 358 359 361 357 355 355 351 354 357 359 358 362 364 362 364 362 358 356
334 331 335 335 337 332 336 339 342 339 345 340 340 336 337 340 338 337 334 328 326 331 335 338 338 337 336 336 337 337 339 339 339 338 339 339 339 342 343 345 346 347 349 348 349 354 356 357 358 359 361 361 361 359 360 359 355 362 361 356 361 357 357 360 361 361 358 359 358 360 360 362 364 364 363 363 362 361 360 358 358 357 360 354 357 360 360 358 356 361 361 361 364 359 356 357 354
329 333 336 338 337 335 339 338 341 341 338 342 339 341 340 336 337 337 336 332 335 337 337 340 339 338 338 338 337 337 337 338 338 338 338 338 339 341 342 344 344 344 346 348 348 353 357 357 359 359 359 362 361 363 361 364 364 363 366 363 359 357 358 357 360 361 362 364 364 362 362 361 360 357 360 361 360 361 359 360 358 356 356 359 359 359 360 359 357 360 362 357 353 352 351 354 354
331 329 338 340 341 337 341 339 345 341 342 341 344 343 338 337 332 342 339 339 339 338 339 340 339 340 339 336 336 336 338 337 337 338 339 339 339 341 342 342 344 345 348 347 350 353 358 357 361 362 362 363 364 363 363 359 359 359 360 362 358 357 358 357 359 360 360 360 361 366 367 360 358 358 359 359 360 360 355 356 362 360 361 361 363 357 359 362 365 355 357 354 351 353 348 351 352
329 329 336 338 339 341 341 340 338 342 345 346 343 339 338 340 338 341 336 338 337 338 339 339 338 338 337 336 335 336 337 337 337 338 339 340 341 341 342 343 344 343 345 348 350 352 356 358 360 361 363 363 363 362 361 362 361 362 362 361 359 358 357 356 359 359 359 358 359 359 361 362 358 359 360 357 356 357 353 355 354 355 360 361 360 362 360 359 358 353 356 354 354 353 350 352 351
330 335 337 338 336 342 342 343 342 343 345 346 340 337 340 341 343 338 338 340 338 339 338 337 337 336 335 335 335 337 337 337 338 337 338 340 341 339 341 341 342 343 344 348 350 354 356 357 357 359 361 362 362 359 360 362 362 364 363 363 361 360 355 354 360 358 359 360 358 359 359 363 360 358 358 357 355 356 355 356 358 358 356 358 359 360 361 361 358 355 354 354 351 353 352 353 352
336 335 337 337 337 339 343 341 341 344 344 343 339 336 339 340 337 329 340 337 338 337 335 336 335 335 335 335 336 338 337 337 338 338 339 340 340 339 341 342 342 345 346 348 350 355 357 356 356 360 362 364 361 358 360 361 363 363 363 362 361 359 360 358 358 356 359 362 360 363 364 364 359 356 352 356 359 359 360 359 359 360 357 357 361 362 364 364 361 358 358 353 354 354 351 352 349
335 333 338 338 339 338 340 341 339 341 338 335 340 335 337 337 338 331 335 338 340 336 334 335 335 335 335 335 336 338 337 338 339 338 336 338 338 339 340 341 343 345 346 349 351 356 356 355 356 359 361 361 361 357 359 359 361 360 363 362 360 361 361 359 360 359 358 361 363 364 365 362 358 358 359 359 360 359 360 359 360 361 359 360 364 364 362 362 360 361 359 358 356 356 354 353 355
334 336 334 337 337 337 339 338 338 339 335 341 342 334 333 332 332 336 337 338 338 336 334 335 335 336 336 337 337 337 337 339 338 338 337 340 340 340 340 342 344 344 349 350 352 354 353 355 357 360 361 359 359 356 357 359 358 358 359 360 361 360 360 361 359 357 360 363 365 366 366 364 365 361 362 362 361 361 359 359 361 362 363 364 366 367 364 362 358 357 358 357 358 356 353 353 352
334 334 334 329 329 330 336 341 340 335 335 338 339 317 324 329 334 338 338 338 336 334 335 335 336 336 336 337 336 336 337 338 338 338 340 340 341 341 342 343 346 346 349 352 350 352 355 356 358 359 361 360 358 357 359 357 358 358 358 359 360 359 358 358 359 358 359 362 364 367 366 367 365 365 366 363 359 361 362 360 360 361 363 365 367 368 362 360 361 359 356 356 355 355 351 354 349
328 333 332 328 322 321 335 336 337 332 338 339 337 319 321 329 332 338 338 338 334 332 333 335 335 335 336 336 335 335 336 338 338 339 340 341 343 344 344 345 346 349 350 349 349 353 354 357 357 358 361 360 359 357 358 357 358 357 356 358 358 359 358 357 356 357 358 361 363 363 367 368 370 370 370 368 358 359 360 359 360 361 365 366 365 366 362 362 362 361 359 356 355 351 350 353 349
329 323 320 324 322 324 333 340 338 331 336 340 332 322 323 329 332 338 338 337 337 332 332 333 334 334 335 335 334 335 335 338 338 339 341 341 343 344 344 344 346 348 349 351 353 353 351 354 358 358 360 360 361 358 358 359 359 359 359 358 358 359 357 356 355 356 357 359 361 365 367 369 367 369 370 368 360 359 359 359 360 366 367 365 365 366 364 362 363 362 362 360 354 349 351 349 352
326 323 316 319 321 325 327 337 339 339 336 337 331 321 323 329 334 338 337 338 335 333 332 333 334 335 335 334 334 335 335 336 338 339 341 341 343 345 345 344 348 349 351 353 353 354 353 355 357 357 358 359 361 358 360 362 360 359 359 358 356 358 355 355 357 357 357 359 359 360 364 367 369 368 369 368 363 360 359 359 361 365 368 366 367 364 360 360 359 358 363 364 361 355 348 346 347
321 325 319 321 318 322 321 331 336 334 336 329 333 325 327 331 334 337 338 338 336 332 332 332 333 333 334 334 335 334 334 336 337 340 340 341 343 345 345 349 350 351 353 354 355 355 354 354 356 357 359 360 362 361 362 361 361 360 358 358 359 355 354 353 356 355 357 356 359 359 363 364 367 369 369 369 371 361 362 361 363 366 366 366 366 362 362 363 364 362 361 364 364 361 353 351 348
315 320 318 319 323 323 321 321 328 334 336 330 329 327 327 332 332 336 339 342 338 333 332 333 333 332 334 333 334 335 335 335 337 340 340 342 343 344 346 348 349 352 352 354 355 358 355 356 359 357 358 361 362 364 364 363 361 362 358 357 358 358 359 356 356 355 353 355 355 361 365 365 367 368 368 367 366 361 362 361 363 367 365 365 364 362 361 365 364 363 363 365 365 360 354 351 349
319 321 318 318 316 318 323 327 335 333 328 326 326 322 325 330 330 334 337 340 338 334 334 333 333 334 334 333 334 335 335 335 338 341 341 343 343 344 346 348 348 351 353 356 357 359 360 361 362 361 360 361 364 364 364 361 360 356 354 355 355 355 357 355 358 355 353 354 355 358 363 366 368 368 369 370 369 365 361 361 362 365 363 364 364 360 360 362 363 361 361 364 362 359 355 352 352
321 322 320 318 319 322 325 328 332 335 329 327 328 329 330 330 333 336 338 339 338 334 333 332 332 334 333 333 334 334 335 335 339 341 341 344 343 346 347 350 350 352 357 357 357 357 358 358 360 361 359 362 364 361 360 359 357 358 356 353 351 351 353 355 355 355 355 354 355 359 364 361 367 368 370 374 369 366 365 362 365 364 365 365 364 364 364 359 363 363 363 367 360 356 352 348 347
318 320 320 319 318 318 325 328 332 337 329 323 326 328 330 331 330 336 336 336 333 333 332 331 332 333 334 334 334 335 337 339 339 341 340 344 344 348 349 352 354 352 357 356 356 358 358 357 360 361 362 362 363 362 360 360 361 358 355 353 349 349 352 352 353 354 353 354 360 363 364 364 368 370 369 375 374 369 365 362 364 366 364 366 367 367 363 362 364 364 364 368 361 354 350 349 351
318 319 320 318 319 322 324 328 332 334 331 325 328 326 327 331 330 332 330 327 336 336 335 333 333 334 333 334 335 335 336 337 339 340 341 344 346 350 351 351 353 354 355 353 357 357 358 358 361 362 361 363 364 364 361 360 361 360 357 353 352 349 352 356 352 355 356 354 358 361 364 365 369 370 368 369 370 369 366 365 365 366 365 363 364 364 363 362 366 364 366 360 359 353 350 353 357
316 318 319 317 320 316 314 324 329 330 327 325 327 322 326 328 333 332 334 333 335 340 338 336 336 335 334 334 336 336 335 337 338 339 340 343 347 350 351 351 353 353 355 354 354 357 357 359 361 362 362 364 364 365 363 364 363 364 365 361 358 354 354 359 359 358 356 354 355 360 363 366 367 366 366 366 367 369 368 366 365 366 366 368 369 364 362 363 364 366 364 363 364 348 347 347 352
316 316 317 317 318 320 321 322 328 329 330 334 327 324 324 326 328 327 334 339 337 335 334 338 336 338 336 337 339 339 336 338 338 340 342 343 346 348 351 353 353 353 352 353 354 355 353 363 361 364 363 364 365 364 365 366 364 364 364 365 364 362 362 360 355 352 354 355 356 358 360 365 367 366 367 368 367 367 368 368 367 367 365 366 367 362 363 361 365 362 365 364 362 356 347 348 352
313 316 316 317 321 321 322 325 323 321 321 326 324 311 314 321 324 328 331 334 333 336 333 335 336 335 336 334 336 339 340 340 340 341 342 342 344 348 352 352 352 352 350 353 354 352 355 361 366 364 363 363 363 367 369 366 364 362 359 358 356 354 355 354 350 350 351 351 351 355 361 362 364 367 367 368 367 366 366 367 369 366 366 365 366 362 363 361 364 363 365 365 363 365 363 349 346
309 311 317 319 322 320 319 323 323 314 312 321 327 310 306 320 321 327 329 329 330 334 334 335 338 335 335 334 337 337 336 338 340 341 341 340 344 347 349 350 350 350 351 353 354 354 355 362 366 365 365 363 362 368 367 366 363 362 359 356 356 355 352 354 356 353 352 353 356 356 360 363 365 364 365 368 367 366 368 367 369 367 365 367 366 363 360 362 361 363 366 365 363 369 368 353 349
308 316 318 319 322 318 318 320 320 318 323 326 325 319 313 309 319 328 329 326 328 332 333 335 336 338 336 334 337 337 336 338 338 339 340 341 344 347 346 348 348 348 351 353 353 355 357 362 365 365 363 363 363 368 367 368 366 362 358 358 356 354 353 355 356 355 356 358 357 355 358 361 363 364 364 368 368 366 368 367 369 369 365 366 365 363 361 360 365 367 366 366 366 368 365 360 362
311 317 318 316 315 317 318 318 317 319 318 314 319 322 315 311 319 327 327 323 326 329 330 333 336 337 337 334 335 336 337 339 339 337 339 340 343 345 346 348 348 350 351 352 353 355 358 361 365 366 365 367 367 368 369 368 367 366 364 360 358 358 358 359 360 359 356 359 357 357 359 358 362 366 367 365 368 366 366 368 367 368 366 366 365 365 363 364 365 368 367 368 367 366 365 367 368
316 317 317 318 317 317 319 317 315 318 314 309 313 321 311 310 322 319 324 324 322 325 328 332 336 338 337 334 336 336 337 339 338 339 341 341 344 345 347 347 348 350 351 353 354 355 356 360 362 365 366 365 368 368 366 367 369 366 364 361 359 360 359 359 358 359 360 359 357 358 359 361 359 362 366 367 369 368 366 369 365 364 363 363 362 364 367 367 368 368 372 369 367 364 368 365 364
319 317 315 315 315 317 319 318 316 314 308 313 317 320 315 308 315 320 316 320 328 329 330 332 335 336 338 337 337 335 336 337 338 339 341 342 346 345 346 346 348 350 352 352 353 356 356 357 361 362 365 364 366 368 367 366 367 366 366 365 363 361 361 359 357 358 360 358 358 357 358 361 361 360 362 364 365 365 369 369 365 362 362 366 365 366 364 362 361 365 367 366 365 367 365 366 367
315 314 314 314 314 317 316 315 318 308 305 312 319 320 318 307 313 321 327 331 333 332 328 330 330 333 336 336 336 337 337 337 338 339 340 342 346 345 346 346 347 350 352 349 352 354 356 357 358 360 362 365 365 366 368 364 365 365 366 366 366 364 363 359 358 356 358 358 358 358 358 360 361 360 362 360 361 362 367 365 367 365 366 366 361 366 366 364 363 364 367 366 366 367 365 365 364
313 314 315 308 308 309 305 310 305 306 305 314 319 321 313 313 319 323 328 332 332 333 332 333 332 334 335 336 337 338 338 338 339 339 340 341 342 343 344 346 349 350 351 349 352 351 355 357 358 359 361 363 364 365 366 365 365 365 366 365 367 369 364 362 360 357 358 356 360 360 359 360 359 360 358 359 358 362 366 366 365 367 366 368 369 371 370 368 370 364 368 365 368 363 365 364 362
310 310 311 307 303 303 300 305 309 309 312 317 318 320 312 319 322 329 329 333 334 334 335 335 334 334 336 336 335 337 339 338 339 338 339 340 343 343 346 345 348 351 353 351 352 353 354 355 358 358 360 363 364 366 364 366 365 365 368 365 367 368 368 366 363 361 360 361 362 361 360 361 359 361 358 360 359 361 362 364 367 368 371 369 369 370 370 367 366 367 366 367 363 364 370 364 362
309 314 313 311 309 303 300 304 300 302 307 313 319 312 308 311 319 331 335 337 339 337 337 338 337 338 337 337 338 338 338 340 341 338 338 339 340 343 344 345 349 351 351 350 352 353 354 354 357 358 359 361 364 364 364 366 365 366 367 366 367 364 364 363 361 360 361 363 361 363 362 360 360 363 361 363 365 364 364 367 365 367 368 370 370 370 366 367 368 367 370 364 371 368 367 365 365
311 314 317 311 310 315 304 309 308 308 308 309 312 311 315 315 328 331 334 334 333 336 338 339 337 339 338 337 336 336 337 338 338 340 338 340 341 344 346 347 348 350 352 351 351 352 353 354 358 359 360 361 363 364 363 363 365 366 367 367 366 365 366 363 364 367 366 363 363 362 363 365 362 362 365 366 367 366 366 367 368 368 372 368 370 371 368 366 367 365 365 368 363 363 367 367 363
309 311 308 311 319 316 311 311 313 313 310 307 315 313 317 325 327 329 331 330 329 332 335 337 337 337 338 338 336 337 337 338 338 339 338 340 341 344 346 348 348 349 349 348 353 353 355 355 355 357 359 360 360 363 363 364 366 364 366 366 365 366 364 362 359 361 361 364 365 364 360 362 364 365 364 367 367 369 371 371 368 366 370 371 371 370 366 369 368 365 365 367 365 365 370 367 365
311 306 311 318 322 319 313 305 310 308 303 306 314 306 309 313 309 326 327 327 329 330 332 336 338 336 336 336 338 338 338 341 341 340 341 340 340 343 346 346 348 349 347 348 352 353 355 356 355 355 356 358 359 359 360 360 364 363 365 365 366 365 363 361 361 359 362 363 366 364 363 363 363 364 363 360 366 365 371 369 369 369 368 368 369 367 367 368 368 366 369 370 368 373 372 370 367
310 311 318 310 307 306 312 308 301 303 302 302 308 311 311 312 313 321 321 324 326 328 332 334 333 336 335 335 337 340 341 342 342 340 340 340 339 342 345 347 347 349 350 349 350 352 354 354 354 352 352 355 356 355 357 360 362 359 360 362 363 365 364 362 361 362 362 362 362 361 363 363 364 365 366 367 364 363 368 364 371 369 370 370 368 369 368 368 369 365 367 365 367 367 365 365 368
313 315 312 316 314 311 309 310 311 306 303 303 305 311 305 315 320 324 324 326 328 328 328 331 335 335 336 336 337 338 340 343 344 341 340 340 339 342 345 345 346 348 349 348 349 351 350 352 352 351 351 353 355 354 356 357 358 357 357 361 362 364 366 363 363 364 361 362 363 361 363 363 363 364 363 367 363 366 364 362 360 364 364 364 365 364 366 367 367 365 365 361 363 370 370 369 365
305 306 307 312 312 317 315 314 310 306 305 305 302 304 312 319 327 325 326 327 330 330 329 332 333 336 338 339 339 340 341 341 342 343 340 340 342 343 345 347 347 346 346 349 350 352 352 352 350 351 351 350 350 351 353 356 356 356 357 358 358 361 361 363 363 363 362 362 362 364 361 363 363 364 364 361 363 368 367 365 361 361 362 364 368 363 365 369 367 367 367 368 369 371 371 366 366
307 305 305 310 309 307 304 304 314 311 307 301 304 301 313 321 331 325 327 330 331 333 333 333 335 337 338 340 341 340 340 343 345 343 341 340 342 343 344 348 349 351 353 347 352 352 354 352 351 351 355 354 353 351 354 356 356 355 354 356 356 357 360 362 361 362 362 361 362 362 364 363 361 364 365 362 362 364 366 362 364 363 363 365 366 368 365 367 367 368 364 359 360 365 365 364 365
Wind_Speed
10 11 10 10 7 5 4 1 3 3 3 2 6 5 8 10 12 14 13 10 10 9 11 12 10 5 4 10 12 11 13 9 7 2 8 9 12 13 13 14 14 12 12 12 11 11 12 10 9 11 11 11 10 10 10 11 16 16 10 11 10 11 10 11 11 12 11 10 11 11 16 14 13 15 16 14 15 15 16 17 14 11 10 12 12 11 12 13 13 12 11 12 13 13 13 14 15
10 10 9 6 5 5 2 7 3 1 6 5 9 7 10 11 12 12 11 10 10 11 11 10 9 8 10 11 11 12 14 13 14 15 14 14 14 13 15 14 13 13 12 11 10 10 12 11 9 10 10 11 10 9 8 7 13 12 6 8 11 10 11 11 11 10 10 10 11 15 14 12 13 14 14 13 15 14 14 15 13 13 12 10 12 12 12 13 12 12 12 10 12 12 13 15 15
9 8 6 5 5 6 4 2 3 4 3 8 8 9 9 12 13 11 12 13 15 14 12 12 11 10 11 8 9 9 12 15 19 18 13 15 15 11 14 13 12 12 13 11 10 11 10 10 9 7 10 10 9 9 10 9 9 11 9 9 11 11 11 10 11 10 11 13 13 14 13 12 14 14 12 13 16 14 12 12 12 12 11 10 12 11 12 12 11 11 11 9 10 11 13 13 14
11 5 6 3 3 2 4 3 2 3 2 8 10 9 8 12 13 14 13 15 14 13 11 12 9 8 9 13 14 16 14 13 15 16 12 12 10 13 13 13 12 10 10 8 10 11 10 11 7 7 9 9 8 8 9 8 11 9 7 10 12 12 11 10 10 13 13 13 13 13 12 12 14 13 13 14 15 15 12 11 12 13 11 11 11 13 12 12 11 11 10 9 9 10 12 13 14
11 5 4 6 4 2 1 2 2 1 4 3 8 7 10 13 15 14 14 14 13 12 12 12 11 11 11 10 7 8 12 16 15 13 11 12 15 13 13 12 11 10 10 10 10 12 10 10 8 8 8 9 9 12 11 11 11 9 9 9 12 11 11 11 13 13 12 13 13 13 12 12 14 15 14 15 15 15 14 12 11 13 12 11 13 12 11 11 10 9 8 10 10 9 11 13 13
8 5 4 2 3 3 5 3 4 7 4 5 8 8 13 13 15 15 16 14 12 11 12 10 11 11 11 13 10 13 12 10 13 11 13 14 16 15 14 11 11 10 10 10 11 10 10 9 8 8 8 9 12 11 10 8 11 13 10 8 10 11 10 12 13 13 12 13 13 12 11 13 13 14 13 14 15 14 14 13 13 12 11 11 11 11 10 9 10 8 8 10 10 9 11 12 12
4 4 4 5 4 3 3 3 3 10 3 3 10 12 12 13 14 15 16 15 11 11 9 12 14 14 11 10 13 9 12 14 11 12 13 16 16 15 13 11 10 11 11 10 10 11 12 9 9 9 8 12 12 10 6 11 10 9 10 10 9 10 10 12 13 12 12 11 11 12 12 12 14 13 14 15 15 14 14 13 13 13 12 10 10 12 10 8 9 11 9 9 10 10 12 12 11
3 4 2 2 3 2 4 3 3 3 8 4 9 13 12 13 13 13 14 12 11 9 12 11 10 12 15 12 13 12 12 10 15 17 18 15 15 14 12 11 11 11 11 11 11 10 12 9 9 10 10 12 10 10 9 11 11 10 9 9 10 11 11 11 12 12 12 12 12 12 12 12 14 14 14 14 16 15 14 14 15 12 12 11 11 10 10 9 8 10 11 11 12 10 11 11 10
5 5 2 3 3 1 4 2 7 5 10 6 11 11 11 10 10 12 11 12 13 11 12 13 11 11 12 16 12 11 13 15 17 18 17 16 15 13 10 12 11 10 11 12 12 11 10 10 11 11 11 12 12 12 11 11 9 9 9 10 11 11 11 11 11 11 11 12 11 12 13 13 12 15 14 14 15 15 14 14 14 14 13 12 11 10 11 9 8 9 10 12 12 11 11 11 10
3 1 3 2 2 2 2 3 5 6 9 5 11 11 10 8 11 10 11 13 13 11 11 12 12 15 15 16 13 10 12 17 17 16 16 15 14 11 11 11 11 11 10 11 10 10 9 12 13 13 12 11 12 12 10 10 10 10 10 11 11 12 11 9 10 11 11 12 12 12 12 13 13 15 14 14 13 15 14 13 13 13 13 11 11 10 11 11 9 9 11 11 11 11 10 10 9
3 3 4 6 1 2 1 3 6 6 9 7 8 9 8 8 9 11 9 10 13 11 13 15 15 16 14 14 11 12 16 17 16 16 15 15 13 12 11 11 10 10 10 14 12 11 10 10 14 13 12 12 11 11 10 10 11 11 11 12 12 12 10 10 10 11 11 12 12 12 12 13 14 17 16 14 14 14 13 12 13 13 14 12 11 11 10 10 8 9 10 11 11 10 10 9 8
5 5 2 6 1 4 4 2 8 7 7 8 10 8 5 8 8 10 12 11 11 13 12 10 12 15 15 13 10 12 16 16 15 15 15 13 11 12 10 9 9 9 10 12 11 11 10 9 9 12 12 12 11 9 9 9 10 10 11 13 12 11 12 11 10 11 11 12 13 13 12 13 17 18 14 15 14 13 12 13 13 13 13 12 10 9 9 7 5 6 10 11 10 9 8 8 8
8 5 6 3 4 4 2 9 4 9 7 8 9 8 6 8 8 10 11 10 11 13 10 12 16 12 14 12 11 15 16 16 15 15 14 12 12 10 10 9 9 10 9 10 11 11 10 8 8 9 10 11 10 10 9 8 10 11 12 14 12 10 11 12 11 11 12 13 13 13 14 17 18 15 16 18 14 9 9 12 13 13 11 11 10 9 9 7 6 7 10 10 9 9 8 8 7
7 4 5 8 3 6 8 8 7 8 5 8 7 6 6 6 8 10 10 12 11 10 12 13 10 14 15 14 12 13 14 16 16 15 12 13 12 11 12 9 9 9 9 10 11 10 8 8 9 8 7 6 7 9 9 9 9 11 15 17 10 8 11 13 12 13 12 13 14 15 17 19 15 15 17 19 16 12 11 11 12 12 13 12 11 10 8 5 7 5 9 9 9 9 8 7 7
6 3 7 6 6 7 7 3 9 4 7 10 9 8 8 6 7 8 10 12 10 10 11 9 14 11 11 15 13 13 15 17 16 14 12 12 13 12 11 10 8 8 8 10 11 9 7 7 9 8 6 5 5 5 6 7 9 14 17 16 8 9 10 12 12 11 12 13 15 18 17 16 13 14 16 17 17 15 12 12 13 13 14 14 12 11 8 6 6 7 9 9 8 8 8 8 7
5 5 4 6 4 5 4 3 5 6 9 9 7 7 9 8 6 8 9 8 10 10 9 11 7 5 16 14 16 18 19 17 15 14 12 13 12 11 10 9 7 7 7 10 8 10 7 7 8 7 6 5 6 6 5 7 8 17 18 13 7 9 9 10 11 11 13 15 18 20 15 11 12 13 16 15 17 17 14 11 11 11 13 14 13 11 8 5 6 6 8 8 8 7 7 7 7
5 5 5 5 7 4 5 4 6 10 12 10 9 10 11 10 6 6 5 9 12 11 8 8 5 13 14 15 19 20 19 17 15 15 13 11 10 9 8 7 6 6 5 8 9 9 8 7 8 7 7 7 8 7 4 7 10 14 16 13 7 7 10 12 11 11 13 14 16 17 13 9 9 7 10 11 14 12 15 15 13 12 13 15 14 11 8 6 6 4 5 6 6 7 7 7 6
4 7 6 6 6 4 3 4 2 8 13 9 10 12 12 12 10 9 10 11 10 9 9 9 11 12 16 19 20 20 18 18 17 16 13 11 9 9 8 7 7 6 6 6 9 7 9 5 8 7 7 7 6 6 5 6 8 9 9 11 5 2 5 10 8 7 10 9 13 10 8 6 6 8 9 11 9 12 13 16 14 14 14 15 14 12 11 9 6 6 7 7 7 7 10 6 5
5 6 1 7 8 6 5 7 9 13 10 12 11 13 11 11 12 10 10 13 13 11 12 12 16 18 20 21 21 20 19 17 17 15 15 13 11 11 9 8 6 7 6 6 7 8 7 5 6 7 7 5 5 5 5 6 11 7 6 7 8 3 1 5 8 8 7 9 9 7 6 8 8 7 6 8 9 13 12 13 15 15 14 14 13 10 9 8 7 6 9 9 10 12 6 3 5
2 8 3 3 6 4 4 8 13 8 14 14 13 13 11 11 11 9 10 13 12 13 13 16 18 20 21 21 20 20 18 17 16 15 14 13 12 11 11 9 9 6 6 6 7 6 9 5 6 7 6 6 3 4 5 5 7 9 7 7 7 5 3 4 7 9 6 8 8 8 7 7 9 9 13 15 11 9 9 12 13 14 14 13 13 5 3 6 8 8 7 9 7 6 3 4 4
2 5 5 3 8 5 6 10 13 14 15 11 9 12 12 11 10 8 12 13 11 11 13 16 20 21 22 21 20 19 18 17 16 15 14 11 12 10 10 10 8 7 6 7 6 5 10 9 3 3 7 5 5 4 3 3 6 5 6 7 6 6 4 4 6 7 7 7 7 7 7 8 8 10 10 9 7 8 8 7 6 7 7 8 11 5 6 5 7 7 9 9 7 6 9 7 4
4 6 2 5 5 9 8 9 12 13 7 16 12 13 12 11 8 10 9 8 9 10 13 16 19 22 23 22 20 18 18 17 16 15 14 13 12 10 10 10 10 8 6 6 8 7 6 10 9 4 4 8 5 4 2 5 2 2 8 7 4 6 5 3 4 6 7 5 5 6 7 8 7 8 8 8 8 9 10 10 7 5 5 7 10 6 4 7 8 8 7 6 6 7 5 3 4
5 7 3 3 6 9 10 11 12 15 9 12 13 12 12 10 9 8 7 8 8 11 14 17 19 20 20 20 20 19 18 17 15 15 14 13 12 11 11 9 9 8 6 5 7 6 5 6 8 7 5 4 7 8 7 3 5 7 7 8 9 6 4 6 3 4 6 5 5 7 6 7 8 8 7 6 7 6 6 7 9 8 9 8 9 8 8 6 3 7 9 9 7 5 6 5 3
1 3 5 6 8 7 6 12 7 11 16 14 10 13 12 12 12 7 9 9 10 12 15 18 19 19 19 19 19 18 17 16 15 14 13 12 11 11 10 10 9 8 7 8 7 7 6 8 6 5 5 4 5 5 4 5 4 6 6 5 10 9 6 5 4 5 5 4 2 1 2 6 7 7 7 7 6 5 5 6 6 7 6 6 5 9 11 9 9 6 5 5 5 5 7 6 5
2 2 6 5 7 7 7 7 8 3 8 9 12 13 12 11 10 10 10 11 13 14 16 19 19 19 17 18 18 17 16 15 14 14 11 10 10 10 10 9 9 8 9 8 7 8 7 7 7 6 6 4 4 4 5 4 5 5 5 6 7 13 5 5 7 5 5 5 4 3 2 4 6 6 6 7 7 7 8 6 5 6 6 6 9 6 3 6 4 5 5 4 4 5 5 5 4
5 6 6 8 8 8 6 3 8 10 4 7 12 12 10 10 12 10 11 12 13 15 17 18 19 18 17 17 17 16 15 15 14 14 13 11 11 11 10 9 9 9 8 9 8 7 8 7 8 7 6 5 4 4 5 5 4 5 5 6 6 6 11 7 7 6 3 3 5 5 5 4 6 6 5 5 6 7 7 7 5 5 5 4 4 3 4 3 4 3 5 5 5 4 4 4 3
12 9 5 8 9 8 6 6 6 5 4 6 7 11 13 12 8 9 10 13 14 15 18 18 18 17 16 16 16 15 14 14 14 12 12 11 11 10 9 10 9 9 9 9 8 6 7 8 8 7 6 4 4 4 5 5 5 5 5 5 5 6 6 10 7 9 3 4 5 5 5 5 5 6 8 6 5 5 5 5 4 4 4 3 3 3 3 4 3 3 3 4 4 3 3 3 3
10 10 5 10 10 8 8 6 2 2 4 9 4 13 11 9 4 10 13 13 13 16 18 18 17 16 15 16 15 14 13 12 12 12 13 13 10 9 9 8 9 10 8 9 10 7 8 8 8 8 7 5 4 6 5 5 6 6 6 5 6 6 5 6 6 8 10 7 5 5 5 5 6 7 7 6 6 5 5 5 4 4 4 2 3 4 3 4 5 3 3 5 5 4 3 3 2
10 11 7 8 9 7 8 8 6 1 4 4 7 11 9 5 10 13 13 14 16 17 18 17 17 15 15 15 14 12 12 12 11 10 11 10 9 9 10 9 9 9 7 9 10 10 10 9 8 8 7 7 5 6 5 5 6 6 6 6 6 5 5 5 6 8 7 8 7 6 5 6 5 5 4 6 5 5 5 5 5 4 4 4 4 3 3 2 5 4 3 2 3 3 3 2 2
7 8 5 10 5 5 6 5 4 7 2 5 7 7 6 4 12 13 14 14 16 17 16 16 15 14 14 14 13 13 12 12 11 11 10 9 9 10 10 10 10 8 8 7 12 8 5 7 6 7 8 7 6 6 4 5 5 6 6 6 5 5 5 6 6 7 7 7 7 6 5 4 5 4 4 3 4 5 5 4 4 4 4 4 3 1 4 3 3 3 3 3 2 2 2 2 2
8 5 7 5 8 5 8 7 10 6 5 4 2 3 6 9 12 13 14 14 17 16 16 16 15 14 14 13 13 13 14 11 12 12 11 10 9 9 9 10 9 10 8 9 12 13 9 6 7 7 7 8 6 7 5 6 5 6 6 6 5 5 6 6 6 7 7 7 6 6 6 4 4 4 3 2 3 4 5 4 4 4 4 3 2 3 1 3 3 2 2 3 2 2 3 2 3
6 8 8 6 6 10 10 8 9 8 7 7 1 3 4 6 12 13 13 14 14 16 16 16 15 14 15 13 14 13 13 12 12 12 11 10 9 8 9 10 8 11 9 10 10 10 12 10 7 9 9 8 7 7 6 5 5 5 5 5 5 5 5 6 6 6 7 6 7 6 6 5 4 4 3 1 2 4 4 4 4 4 2 3 2 2 2 3 3 4 4 4 4 2 2 4 3
11 10 9 8 7 7 11 7 6 4 7 7 7 4 6 3 9 11 13 14 15 15 16 16 16 16 14 14 13 13 13 13 11 12 11 10 9 8 9 10 8 9 10 10 10 9 9 10 9 10 10 9 8 8 7 6 5 6 6 5 6 5 6 6 5 6 6 6 6 6 5 5 4 3 3 2 0 4 4 5 5 4 2 3 1 1 3 2 3 4 3 3 2 3 2 3 4
9 10 8 9 10 9 6 11 11 7 9 8 9 4 3 5 7 11 12 12 14 14 17 16 15 14 14 13 13 14 13 12 12 12 13 11 9 9 9 8 9 8 10 10 11 10 9 8 8 8 9 9 8 7 7 6 6 6 6 6 5 5 6 6 6 6 6 6 6 6 5 5 4 3 2 3 4 4 4 4 5 4 3 2 1 2 2 3 3 3 4 4 2 2 1 0 3
9 10 10 5 8 9 9 10 11 12 9 10 12 6 6 8 9 13 12 13 13 14 15 16 16 15 14 13 13 15 13 13 12 11 13 11 11 10 9 9 10 9 8 11 11 9 7 8 8 10 7 7 8 8 6 6 6 5 6 6 5 4 4 5 5 5 6 6 6 7 5 4 4 3 2 1 1 3 4 4 4 3 3 1 1 2 2 3 3 4 3 3 1 2 1 3 3
10 8 7 7 6 9 10 6 15 16 13 11 15 12 11 10 12 12 15 13 13 15 14 14 15 15 14 13 13 13 13 13 12 12 14 11 11 10 10 9 9 8 9 10 12 11 9 7 8 9 9 7 7 7 6 6 6 6 6 6 6 5 5 5 5 6 6 6 8 7 5 4 3 3 2 1 0 2 3 3 4 3 3 2 1 2 2 2 3 3 3 3 3 1 1 3 2
8 10 12 8 10 5 2 11 14 14 11 10 13 12 12 10 8 12 13 13 13 14 16 15 15 14 14 14 13 14 14 13 13 13 13 12 12 10 10 9 9 10 10 11 10 13 12 8 9 9 10 8 7 6 6 6 6 6 6 6 6 6 5 5 5 6 6 6 8 6 5 5 4 3 2 1 1 2 3 3 3 2 2 2 1 2 3 4 2 2 2 2 3 2 3 4 3
8 9 9 7 9 6 6 10 12 10 9 12 14 13 12 12 11 10 5 12 15 15 17 16 15 16 13 14 14 14 13 11 14 12 13 12 11 12 11 9 9 10 10 11 10 10 11 11 9 9 9 8 7 6 6 5 5 5 5 5 7 7 6 6 5 6 6 8 6 6 4 5 4 3 2 1 1 1 3 3 2 2 1 2 1 2 2 1 1 2 2 1 2 2 3 3 5
9 7 7 8 7 11 1 5 12 10 8 7 12 11 9 10 10 3 2 4 8 13 14 14 16 15 13 13 15 14 13 13 13 13 13 12 13 13 11 10 10 10 11 11 10 11 11 11 7 8 8 8 7 7 6 5 5 5 5 5 5 6 6 6 6 5 7 8 7 6 5 5 4 4 4 3 2 2 2 2 3 2 2 3 2 2 1 1 1 2 1 2 1 1 3 3 3
7 7 7 7 3 10 7 6 5 1 6 6 11 10 7 8 8 8 6 9 5 11 4 15 14 15 15 15 14 14 15 14 15 14 14 13 12 11 11 10 10 10 10 10 11 12 10 10 9 9 8 7 7 7 6 6 5 3 2 4 5 5 5 5 6 6 6 8 8 6 5 5 5 5 5 4 3 2 3 2 1 3 2 2 1 1 1 0 0 1 1 2 2 4 5 6 3
10 9 8 7 7 3 3 8 11 8 4 2 10 5 5 7 7 8 8 7 4 9 8 9 15 13 13 13 14 14 15 15 14 15 14 14 13 12 11 11 11 10 10 11 10 10 9 9 11 10 8 8 7 8 7 7 6 5 4 4 5 5 5 5 6 6 6 6 7 6 6 6 5 4 4 3 3 3 2 1 2 2 2 2 1 2 2 1 0 2 2 1 4 4 2 5 4
11 10 7 4 12 2 4 7 10 8 6 6 14 8 6 8 8 8 8 5 9 7 5 13 14 15 14 15 14 14 14 13 14 15 14 14 13 13 11 11 11 10 10 10 10 10 10 11 11 9 8 8 8 9 8 7 6 6 6 6 6 6 6 6 6 7 7 7 7 7 7 7 6 4 4 4 3 4 3 2 2 3 3 2 1 0 1 1 1 2 2 2 3 4 3 3 6
12 11 11 8 15 5 5 5 9 5 5 12 15 9 5 6 9 9 10 11 10 9 8 14 12 14 14 13 14 14 14 15 14 13 13 14 13 13 13 12 11 10 10 10 10 10 12 11 11 11 8 8 8 8 9 7 7 6 7 7 6 6 6 5 5 5 6 6 5 7 6 6 5 5 5 4 4 3 3 3 2 2 3 3 2 2 3 3 2 3 2 3 3 3 4 3 5
5 11 8 8 16 16 9 13 8 4 6 6 10 8 3 7 9 10 12 13 11 11 11 10 12 12 14 14 15 14 14 14 14 14 14 13 13 13 13 12 11 11 11 11 10 10 11 11 11 11 9 9 8 8 9 7 7 7 6 5 6 6 6 6 6 6 6 5 6 7 6 6 6 4 4 4 4 4 4 4 3 2 3 3 2 2 2 2 4 3 2 3 3 3 5 4 5
6 3 6 6 4 8 10 10 7 3 3 4 5 9 5 5 8 8 13 12 11 12 14 13 12 14 14 16 15 16 16 15 15 14 15 14 14 13 13 12 12 12 11 11 9 11 10 11 11 10 10 9 9 10 8 8 6 6 6 5 4 4 5 6 6 5 5 5 6 6 5 6 5 4 4 5 4 4 4 3 3 2 3 2 3 2 2 3 2 3 2 2 2 2 3 3 2
5 4 1 4 4 8 9 7 6 9 8 5 10 12 6 5 8 9 9 9 13 12 12 13 13 13 14 15 15 15 14 14 14 15 15 14 14 13 13 13 12 11 11 11 11 11 11 10 11 11 11 9 9 10 8 8 7 6 5 5 6 4 5 5 6 6 5 5 6 6 4 5 6 6 5 5 5 4 4 4 4 4 4 3 3 2 1 3 2 2 1 3 3 3 2 2 2
8 5 5 7 8 6 6 8 6 5 9 7 14 15 8 4 8 11 13 8 7 8 8 7 7 9 15 15 14 15 14 15 13 14 14 14 14 13 13 13 12 11 11 11 11 11 11 11 11 11 11 9 10 9 9 9 7 7 5 6 6 6 6 6 6 7 6 6 6 6 5 5 4 5 5 5 6 5 5 4 4 4 4 3 2 2 3 3 4 4 3 2 1 2 2 2 1
6 7 4 3 5 4 6 7 6 7 7 6 9 12 11 6 6 9 7 7 12 12 14 15 15 13 15 15 14 15 14 14 14 14 14 15 14 13 13 12 12 11 11 11 11 11 11 11 11 11 11 10 11 10 10 9 7 7 6 6 6 6 6 5 7 7 7 7 7 6 5 5 5 5 5 5 6 6 5 4 4 4 3 3 3 3 2 2 3 3 3 2 2 1 0 1 3
8 8 5 7 6 5 6 8 10 9 6 3 2 6 4 6 4 11 9 11 15 16 15 16 17 16 17 15 15 13 13 15 14 13 13 14 13 13 13 12 12 11 10 11 11 11 11 11 12 11 11 10 10 10 10 9 8 7 7 7 6 5 6 6 6 6 7 6 6 6 6 5 5 5 5 6 6 7 6 5 4 3 3 2 1 0 1 1 2 2 3 3 2 2 1 0 1
11 10 7 7 8 6 8 8 7 8 5 10 3 3 5 4 6 11 16 12 14 17 15 15 21 20 15 13 14 14 13 14 14 14 14 13 13 13 12 13 12 11 11 11 11 10 11 10 12 12 11 10 9 9 9 9 8 7 7 7 7 6 6 6 6 6 6 5 5 6 6 6 6 6 6 6 6 6 5 5 4 4 3 3 3 2 2 3 2 1 3 2 4 2 1 1 2
13 10 9 8 6 5 5 4 5 8 4 7 8 6 2 7 5 8 12 10 9 10 12 13 12 13 15 12 13 15 15 14 13 14 14 15 15 15 13 13 12 12 12 12 10 10 10 10 11 12 12 11 10 9 9 9 8 8 7 7 7 6 6 6 6 5 6 6 6 6 5 6 6 6 5 5 5 6 6 5 5 5 4 4 4 4 4 3 3 2 1 2 1 3 2 2 3
11 11 8 10 11 8 7 5 5 4 1 8 7 2 3 2 3 7 10 11 11 12 11 14 14 13 14 12 12 12 14 15 14 14 15 15 15 14 13 13 12 12 13 11 12 11 10 10 12 12 12 12 11 10 9 9 8 7 8 7 7 7 6 6 5 4 5 6 6 6 5 4 5 4 4 6 5 5 5 5 6 5 5 5 5 4 4 4 4 4 3 3 3 2 3 3 3
10 11 13 10 8 9 8 9 8 10 3 3 5 3 2 5 2 6 8 9 9 11 12 13 15 16 14 10 9 9 11 13 14 14 14 15 15 15 13 13 12 13 12 12 11 11 11 11 12 12 12 12 12 11 10 9 8 8 8 8 7 7 7 7 7 7 7 6 6 6 6 6 5 7 6 6 7 6 6 5 5 5 5 5 5 5 5 3 4 4 4 3 3 3 1 2 3
5 12 11 10 11 9 8 6 6 8 7 5 10 10 6 8 3 8 9 10 11 12 13 13 14 16 15 13 10 12 13 13 14 15 15 15 14 14 13 13 14 13 14 13 12 12 11 11 12 12 12 12 12 12 11 10 9 9 9 9 8 8 7 7 6 7 7 7 6 6 6 6 6 6 5 7 6 7 6 6 5 5 6 5 5 5 5 4 4 4 3 3 4 1 1 2 3
12 5 2 10 9 11 7 5 8 6 7 1 6 12 7 8 5 10 12 11 14 14 12 13 15 14 15 15 15 12 11 13 14 15 14 15 14 14 14 14 14 13 13 13 13 13 12 12 11 12 13 13 12 11 11 9 10 8 8 9 9 8 7 7 6 7 6 6 7 7 6 6 6 6 5 4 7 7 7 7 6 6 6 6 6 5 5 5 5 4 3 4 4 3 3 3 4
17 10 8 9 7 9 8 7 6 5 6 4 7 13 5 5 4 12 12 12 13 14 16 14 16 16 14 15 15 14 13 10 9 12 14 14 15 15 14 14 13 10 11 13 14 13 14 13 12 11 12 12 12 11 11 11 11 9 8 9 9 8 8 7 7 6 7 7 7 7 7 7 7 6 7 6 7 7 7 8 8 8 7 7 7 7 7 6 5 5 4 5 3 4 4 3 4
14 12 10 8 9 6 7 6 9 6 7 3 5 2 2 3 4 2 11 14 12 12 15 14 14 14 15 15 14 14 13 11 11 11 12 13 13 14 13 13 11 11 9 10 13 13 12 12 13 12 12 12 13 12 12 10 9 9 9 10 10 10 10 8 8 8 7 7 7 6 6 6 6 6 7 8 7 6 7 7 7 7 7 6 6 6 5 5 5 5 4 4 2 5 4 4 4
12 12 11 9 11 13 10 9 6 10 7 3 3 3 2 2 3 3 3 1 8 11 11 11 11 13 14 12 13 14 14 13 11 11 11 11 12 12 13 11 9 4 4 14 13 12 12 12 12 12 11 9 10 11 10 10 9 9 10 10 10 9 9 9 9 9 8 8 8 7 6 6 7 7 6 7 7 7 7 7 7 7 6 6 6 5 6 6 6 6 6 6 6 6 5 5 5
Wind_Direction
200 205 200 212 220 227 230 152 272 133 245 152 137 163 94 94 111 114 106 124 100 99 104 117 113 93 35 88 103 72 40 51 16 317 101 118 137 136 133 130 129 129 122 117 125 135 130 109 115 128 117 106 105 109 120 133 136 130 145 145 142 122 119 105 100 99 100 101 99 89 83 89 87 88 89 95 91 90 94 103 117 115 101 102 102 102 100 100 101 96 90 95 97 99 98 99 103
206 204 213 201 228 246 209 198 256 246 188 148 91 105 115 119 121 110 114 109 110 121 117 102 97 93 84 101 104 83 56 51 71 85 97 124 133 128 127 132 131 128 115 121 139 130 113 101 79 95 100 101 102 104 98 89 91 96 123 131 123 111 103 101 100 102 103 102 96 89 97 98 92 84 95 95 93 99 100 112 113 112 107 104 107 103 98 100 100 97 82 87 95 100 102 103 100
199 218 196 205 232 235 268 9 249 173 213 119 106 109 133 113 103 103 105 107 112 111 105 103 94 85 106 85 79 72 75 84 96 100 107 127 129 126 126 124 125 119 127 137 127 109 100 76 67 63 99 106 109 108 110 115 110 117 125 114 107 108 108 107 108 107 98 90 89 90 95 97 89 88 91 95 99 107 106 107 115 113 113 107 106 99 96 94 90 86 87 92 88 92 94 98 98
288 220 246 213 281 312 271 192 223 229 152 114 130 76 93 112 103 105 110 113 112 110 113 100 85 27 83 96 89 93 98 94 95 109 121 136 123 130 127 123 121 122 118 115 114 104 98 91 66 104 103 102 100 102 105 98 104 104 118 105 104 107 107 106 103 85 81 93 96 96 98 98 103 102 102 101 103 105 111 110 109 111 108 107 108 108 102 94 94 89 87 91 90 99 106 102 99
252 213 273 287 274 276 232 257 294 159 89 54 100 131 128 111 112 115 122 119 105 104 103 101 95 93 76 70 85 80 94 104 107 112 119 118 130 129 128 131 130 127 123 120 110 102 100 80 83 100 95 90 86 72 59 59 69 93 88 81 94 95 104 104 95 91 92 100 105 106 110 113 108 109 106 110 108 113 114 112 106 104 108 109 104 97 95 97 93 98 93 93 89 105 105 101 100
236 256 193 161 257 28 261 269 176 65 83 184 119 125 114 116 123 123 119 110 116 115 111 118 100 100 73 52 82 108 128 115 119 115 117 126 132 130 129 135 127 127 118 112 110 116 116 93 95 101 95 90 74 74 68 67 72 82 88 78 81 94 100 104 102 108 111 106 104 102 100 106 106 113 115 111 113 115 114 112 108 104 113 105 99 101 101 98 106 105 105 108 109 112 105 101 100
249 228 213 229 232 225 282 291 6 95 4 360 109 119 119 124 120 126 123 120 100 100 107 100 112 111 95 100 81 73 85 112 121 114 121 128 127 129 134 130 124 116 120 117 112 110 110 106 98 99 91 91 101 91 94 86 77 88 96 110 105 104 108 106 108 108 106 104 99 104 105 107 113 114 114 115 115 115 116 114 106 106 109 107 103 104 108 115 112 103 91 103 107 111 103 101 97
255 309 77 268 321 316 303 327 99 109 99 77 103 113 122 130 133 128 130 126 118 119 113 112 92 88 88 99 92 99 110 99 103 114 120 127 129 132 133 127 125 129 119 113 108 108 114 107 102 94 89 89 88 100 89 93 107 105 105 103 111 111 107 104 105 104 103 105 106 110 112 106 109 111 111 112 113 114 113 107 103 101 98 105 102 101 108 111 107 102 123 123 121 113 101 97 94
230 244 74 277 241 233 15 249 82 84 96 76 92 99 121 128 126 125 129 120 113 114 116 109 110 105 104 105 96 101 94 109 111 119 126 129 132 133 133 130 134 125 129 119 121 125 116 110 101 86 76 89 94 92 93 104 100 98 103 113 109 102 101 98 98 99 102 103 105 111 111 111 111 119 115 110 110 112 109 107 104 105 108 105 107 104 104 98 101 115 117 108 104 101 98 97 95
347 356 243 275 345 333 121 273 117 92 99 130 119 125 122 141 131 123 130 127 118 121 100 101 104 106 114 104 113 116 114 116 124 127 126 127 127 129 128 130 130 135 127 114 123 126 115 107 94 82 75 73 82 91 107 99 112 115 116 107 103 95 89 90 94 96 100 103 108 110 112 112 113 107 102 94 100 108 107 103 102 102 101 104 108 108 113 113 114 106 105 106 105 101 101 99 101
265 218 288 278 2 18 292 165 124 129 112 128 114 115 122 130 141 123 118 114 127 116 109 116 116 111 113 101 92 103 118 127 132 127 129 127 128 132 126 127 132 128 129 132 133 125 124 106 94 82 79 77 74 74 75 87 89 91 91 96 98 99 93 94 97 100 102 102 103 107 108 108 109 94 94 108 104 105 109 111 108 105 106 107 110 111 111 108 97 106 105 107 104 104 101 103 102
245 224 231 282 4 299 120 168 134 104 122 131 122 125 135 146 130 130 128 135 131 121 119 134 113 120 111 114 114 123 130 134 129 128 129 131 127 123 126 122 125 124 123 118 122 120 115 116 105 99 83 79 74 73 74 86 96 96 100 97 94 100 105 107 103 98 97 99 105 108 102 98 86 90 106 106 105 112 120 112 109 107 106 105 101 103 107 82 62 103 106 101 103 101 100 104 103
276 311 274 189 217 203 190 158 126 136 155 139 133 125 145 153 142 125 129 123 123 121 124 111 131 133 119 117 121 131 140 132 131 132 135 135 129 128 123 120 124 123 119 115 115 107 105 102 99 85 92 96 82 78 91 96 106 105 102 87 84 77 92 97 106 104 99 99 94 96 100 86 88 108 112 110 114 119 111 112 115 113 111 102 101 105 102 78 72 93 106 102 101 101 106 103 103
260 300 296 290 278 175 225 102 153 152 169 108 129 137 156 140 129 132 130 127 139 122 110 126 129 111 106 117 135 144 136 137 134 138 139 132 128 127 124 126 129 125 118 116 103 100 95 98 98 99 102 90 100 100 95 97 98 98 87 81 74 79 91 94 89 86 91 96 100 99 87 89 113 125 120 119 124 122 113 108 109 110 109 109 108 107 99 79 67 73 107 106 104 107 109 106 101
274 291 283 292 318 314 348 239 164 179 108 151 119 154 155 109 133 136 138 135 115 113 121 121 114 139 141 144 146 147 143 143 140 138 133 129 126 124 126 124 128 125 125 117 108 104 92 98 96 96 87 94 103 99 101 96 92 90 85 89 102 101 84 88 97 102 103 103 102 91 93 111 126 115 114 118 120 117 113 113 113 113 112 110 114 113 105 96 84 99 106 107 108 111 110 111 110
269 287 282 271 268 280 172 200 167 102 154 144 146 145 127 123 119 132 118 127 121 126 146 126 157 114 146 142 143 138 141 143 140 134 133 133 123 119 124 123 130 127 122 112 106 102 118 113 110 106 110 111 98 80 87 98 91 86 87 98 115 108 100 96 95 98 101 101 96 97 102 113 116 118 122 121 117 116 115 113 110 106 112 113 116 117 110 91 93 89 105 109 118 120 117 115 119
269 281 277 297 301 324 26 306 186 171 134 138 160 157 140 135 123 87 117 129 140 132 136 133 116 139 151 133 134 136 140 139 139 139 138 132 131 129 128 131 137 129 126 118 113 114 126 112 108 108 111 106 108 114 111 103 97 96 109 119 112 112 118 106 104 101 98 97 98 106 118 119 113 105 116 115 118 117 122 118 112 115 113 116 118 115 113 107 108 131 131 137 137 137 131 131 131
280 273 341 311 308 334 175 255 263 96 133 141 167 163 138 134 153 149 146 131 119 134 125 119 136 135 122 126 132 139 140 143 144 146 145 141 145 138 143 146 147 138 137 118 114 116 109 113 108 112 118 117 121 126 126 114 110 109 116 117 113 117 113 111 114 109 100 91 95 112 117 125 128 125 117 115 115 120 118 119 117 114 114 115 122 132 146 146 153 173 164 154 158 162 165 151 153
262 296 211 334 338 4 285 219 154 143 144 153 183 139 147 138 148 154 141 132 136 140 127 130 116 113 120 131 137 140 146 148 149 150 149 149 147 147 145 142 141 141 142 127 114 113 112 111 114 114 108 122 125 125 129 130 120 124 131 131 127 169 136 105 116 107 88 97 101 99 105 114 112 115 127 113 118 115 118 121 120 117 116 120 123 137 150 156 168 173 186 183 178 185 195 137 164
259 281 26 306 15 29 54 149 145 136 142 157 169 148 142 141 141 158 138 135 145 140 132 124 126 129 135 137 142 144 149 148 153 151 152 154 143 146 142 144 144 145 140 131 115 117 109 108 101 112 121 129 162 125 130 134 125 146 159 143 137 134 130 114 99 98 113 109 114 116 118 117 124 125 117 119 117 116 119 117 118 119 119 118 104 104 139 192 198 202 204 203 213 208 251 217 196
35 336 24 296 46 49 60 118 141 145 154 146 170 138 139 156 135 157 137 139 138 135 140 141 139 140 140 143 145 147 151 152 154 156 151 148 146 149 144 141 141 146 134 121 120 123 127 129 121 129 129 142 135 127 126 130 118 146 141 142 130 144 116 93 92 96 96 94 98 115 122 125 124 120 131 134 135 125 129 127 133 129 116 116 130 139 185 211 195 192 202 197 211 212 210 186 142
38 77 133 337 99 96 154 131 134 148 167 149 146 145 137 133 160 132 153 138 136 144 146 144 143 144 144 146 147 150 153 155 156 159 150 153 152 147 141 137 139 132 136 142 124 136 139 130 142 154 163 146 140 93 110 129 211 246 101 85 140 115 103 92 104 106 106 119 143 134 134 133 135 131 135 132 138 142 143 142 142 145 132 160 174 177 184 182 198 216 202 206 216 196 160 137 131
96 320 61 96 56 120 152 142 155 151 176 142 154 132 138 143 133 129 138 134 118 129 134 138 142 144 144 144 148 150 155 158 155 158 153 152 153 146 137 132 135 138 144 126 131 136 139 128 136 158 145 135 138 147 147 150 222 143 159 139 130 111 124 123 118 104 111 117 118 123 130 130 126 125 126 131 137 143 146 155 140 160 168 176 181 179 180 185 199 206 194 176 166 116 106 101 92
143 107 68 80 113 123 142 137 168 144 146 155 125 136 138 139 124 131 117 124 130 121 128 136 139 142 143 145 148 151 153 160 155 153 159 146 151 144 139 142 139 134 135 146 139 139 155 137 140 134 131 142 129 127 135 137 126 88 71 120 108 128 136 127 130 99 101 104 93 110 115 124 125 127 134 143 149 157 153 155 165 156 176 179 147 199 178 158 193 165 126 104 111 120 124 127 124
121 103 104 116 114 124 138 148 128 213 97 96 137 142 130 132 126 139 124 134 126 127 135 139 142 144 148 147 148 150 156 156 154 148 158 145 150 142 141 136 133 144 142 144 140 141 149 133 146 137 139 149 126 136 117 115 116 110 122 102 111 125 140 128 108 111 123 133 145 161 181 140 129 133 143 144 150 171 161 156 152 145 166 171 198 149 153 153 142 128 133 129 122 119 116 113 122
109 124 147 136 124 131 125 129 135 125 145 147 155 124 130 123 132 114 133 129 130 134 138 143 144 148 149 149 147 151 158 154 151 157 151 153 149 149 145 144 141 151 142 142 135 144 140 151 143 139 143 136 129 128 115 119 115 110 108 106 106 120 123 127 139 128 125 142 144 169 184 153 138 144 139 138 168 154 143 152 145 125 141 132 113 98 101 101 101 109 122 122 122 124 109 117 130
106 137 117 110 111 137 135 113 122 106 171 153 142 128 131 137 132 121 141 141 138 139 144 144 147 147 148 148 149 151 156 155 157 156 148 156 147 156 152 146 152 139 147 137 121 146 140 148 136 132 129 135 135 114 114 113 115 113 114 119 111 108 116 124 151 118 142 158 133 164 161 153 148 156 137 154 133 128 123 119 115 117 105 92 98 94 71 75 113 92 100 121 109 104 111 122 123
118 106 139 123 134 140 148 135 120 191 111 56 272 130 148 144 163 134 150 139 141 147 144 148 149 147 150 147 150 155 155 159 156 158 155 158 154 160 156 149 149 142 153 135 139 154 147 141 133 133 138 135 125 115 121 120 118 118 121 113 109 106 122 109 113 122 132 127 128 140 130 169 177 126 134 134 131 125 118 114 123 116 102 107 75 70 81 87 82 93 54 65 102 117 131 146 134
121 126 147 123 117 131 167 152 152 67 103 82 268 123 152 168 134 146 145 138 150 151 147 149 148 147 150 151 147 161 155 156 160 159 160 154 163 156 156 157 147 147 142 135 134 144 148 139 132 138 131 138 145 131 128 124 123 126 122 113 113 123 113 111 108 109 112 115 131 120 124 121 121 125 113 119 128 120 119 119 109 111 112 101 95 86 75 109 125 130 121 109 90 106 111 110 176
154 169 136 137 157 153 159 139 144 99 342 181 258 166 134 134 132 157 149 146 153 151 151 149 149 152 150 151 154 158 153 158 173 155 161 155 170 159 154 160 147 148 134 140 128 130 145 132 144 134 137 140 139 122 130 129 131 119 120 118 117 128 116 116 111 111 115 119 118 126 121 115 110 105 113 128 126 119 114 114 110 97 92 97 123 109 125 114 67 97 123 111 138 120 115 116 95
188 159 183 163 167 188 163 176 170 126 188 218 316 143 123 155 151 162 157 158 158 152 155 152 153 153 153 155 158 156 158 167 168 159 164 162 163 161 158 149 157 129 147 152 138 149 145 156 144 132 140 127 133 122 132 120 125 123 120 123 123 119 121 122 123 119 125 124 125 116 114 105 102 112 100 260 113 120 124 115 112 100 104 115 92 107 109 94 118 101 73 104 109 100 78 43 42
167 210 196 192 226 137 171 176 177 159 176 156 152 118 142 182 151 172 162 168 159 157 156 159 156 153 157 157 157 160 160 170 165 165 160 163 164 159 160 143 166 135 154 138 132 146 142 150 152 136 139 137 123 131 124 122 115 107 106 109 118 130 127 120 122 129 125 132 123 118 113 113 118 113 116 74 143 138 119 122 102 102 119 123 101 68 94 104 71 45 40 56 14 45 163 127 122
202 219 199 180 200 143 165 158 196 139 158 161 200 120 149 220 176 166 171 174 161 165 163 161 156 157 159 159 159 155 162 169 165 164 159 166 158 158 156 146 156 146 138 135 139 137 139 135 153 140 140 131 131 128 130 125 117 119 125 128 122 140 132 125 130 131 134 130 128 125 119 121 113 122 114 108 281 116 117 119 125 135 127 103 178 86 78 61 89 98 70 60 87 344 6 87 135
218 203 234 180 192 161 181 160 173 154 189 173 189 156 209 166 209 162 180 173 170 174 162 162 160 160 161 162 161 155 167 165 166 165 160 167 156 153 157 152 143 153 129 139 139 144 139 139 147 134 129 135 131 130 134 141 129 131 131 120 140 141 133 137 138 140 135 130 133 125 128 124 132 126 141 114 265 118 113 114 114 115 122 108 74 107 80 74 70 62 72 51 39 62 22 260 53
203 215 213 152 204 192 154 162 178 163 193 189 172 151 179 168 206 170 192 171 182 178 165 165 164 162 163 167 161 157 167 164 162 166 160 165 154 159 150 157 149 148 151 138 129 109 133 141 129 130 123 134 135 131 134 130 133 142 124 131 128 129 134 129 137 138 137 146 134 127 143 141 130 141 137 154 117 127 125 119 125 119 111 102 104 101 105 81 53 51 61 71 26 39 330 37 51
230 236 228 174 218 215 167 190 157 176 171 188 188 179 170 187 200 186 170 180 182 179 170 168 165 164 167 168 162 162 166 165 159 167 160 165 155 162 145 164 152 149 142 128 131 133 129 128 138 138 137 144 142 140 149 148 149 154 139 130 145 145 137 137 148 141 144 142 127 144 149 133 134 136 146 150 357 105 123 125 120 160 135 148 112 108 109 108 64 67 51 25 34 237 223 45 68
250 235 223 203 166 225 104 159 176 183 170 192 181 175 167 174 220 197 170 180 183 179 175 173 170 166 170 169 163 165 167 164 158 167 162 162 156 155 149 157 156 144 132 139 145 144 141 146 148 146 136 164 147 152 155 153 155 151 147 153 144 149 145 145 161 149 144 136 140 137 149 142 141 142 144 164 136 127 127 133 140 138 146 115 90 74 56 67 52 41 64 349 32 352 78 116 68
271 252 241 222 172 184 201 155 178 154 190 185 185 189 160 171 197 213 174 186 184 184 176 175 170 167 173 171 163 165 166 158 161 165 165 159 160 157 155 158 157 147 146 152 150 146 144 146 160 145 144 154 148 151 153 150 156 155 159 159 152 145 147 163 155 154 143 131 136 139 162 139 147 149 157 139 150 169 139 141 134 128 110 102 86 83 94 88 54 30 21 20 333 9 57 30 38
231 246 238 242 156 152 246 258 156 168 232 159 174 181 168 168 179 94 115 302 247 182 181 179 169 171 170 176 167 165 168 163 166 166 165 164 161 162 156 161 158 156 155 156 149 151 147 141 167 150 149 152 146 139 155 151 158 156 168 150 162 138 155 160 150 142 139 139 148 157 150 145 166 155 158 168 152 150 138 122 155 131 132 122 161 143 129 84 357 27 5 21 27 220 102 92 125
249 218 234 236 128 185 165 237 104 132 196 147 178 167 162 185 157 158 207 184 256 343 273 184 176 173 175 174 170 169 167 167 170 167 169 166 165 162 162 161 161 158 159 152 158 154 155 150 162 152 148 149 144 145 143 145 133 123 102 141 131 150 147 134 129 141 147 143 152 158 156 161 173 168 167 170 148 136 140 154 128 123 131 111 129 151 139 108 102 275 34 40 338 229 118 98 79
238 208 224 231 223 118 351 148 155 180 187 192 135 137 169 163 155 172 189 234 348 265 349 265 177 180 175 173 169 177 169 170 169 172 171 167 169 167 165 161 165 159 165 158 162 164 145 159 152 150 151 143 146 141 144 134 134 141 131 121 125 120 137 148 155 162 154 154 156 168 160 171 173 172 164 155 147 144 138 150 133 142 128 150 148 145 201 185 155 94 60 46 13 17 92 97 80
232 215 221 185 78 96 321 153 175 175 167 197 176 158 198 167 173 185 172 194 201 204 206 233 182 178 182 176 175 175 175 173 173 175 172 167 170 165 164 166 170 162 168 160 166 163 154 157 145 148 149 151 145 149 142 148 151 153 154 158 157 161 159 164 171 167 164 170 171 162 155 175 168 170 168 164 158 156 160 161 170 167 158 151 223 75 73 124 199 139 76 13 69 48 349 146 111
239 190 176 149 112 95 187 210 191 196 198 179 202 198 151 173 192 190 184 193 192 208 223 200 179 183 184 175 177 182 176 173 177 173 176 173 172 167 170 171 170 167 167 160 166 155 142 150 155 150 153 140 145 153 154 152 156 162 165 168 164 165 163 163 175 168 163 173 162 157 162 165 169 178 166 172 170 161 166 164 172 198 153 154 160 147 187 198 129 81 40 56 48 28 15 11 94
214 70 152 149 145 145 183 177 234 116 273 125 198 232 180 180 198 177 181 183 188 200 207 197 186 189 182 183 179 182 178 176 174 174 180 174 174 172 172 173 171 170 166 161 164 151 146 153 151 149 155 148 164 158 161 165 159 159 173 172 162 173 173 157 170 168 168 173 161 159 168 166 170 188 170 162 176 173 174 171 188 198 183 149 168 193 237 58 81 82 69 67 59 20 67 67 327
70 298 100 188 194 188 206 213 202 139 187 169 236 218 244 174 166 167 172 172 190 198 197 197 201 191 190 185 183 182 178 177 180 176 177 174 175 172 174 172 175 169 162 160 162 150 150 151 153 153 152 151 157 161 165 165 159 157 163 159 158 174 163 155 163 165 159 160 164 162 170 166 169 177 185 170 187 177 180 177 185 192 178 158 197 183 185 113 108 99 99 92 79 54 58 47 23
171 219 231 307 222 233 225 237 234 176 216 200 218 204 226 151 145 177 195 186 188 195 197 199 201 204 196 187 184 182 179 180 182 179 174 174 175 171 173 172 173 169 159 156 160 155 157 155 157 158 153 157 158 165 170 167 159 159 162 151 160 150 155 164 161 151 156 157 170 162 173 171 179 178 177 183 174 188 189 179 194 186 190 174 219 115 87 114 129 137 112 53 46 57 24 45 42
16 341 243 225 229 232 239 247 236 223 237 229 188 199 220 187 176 185 187 195 169 171 179 199 217 231 205 189 188 179 181 176 181 179 175 174 171 173 173 177 170 168 155 160 161 159 160 159 159 163 159 151 158 173 168 172 162 164 159 152 159 157 153 161 155 158 160 168 173 173 177 182 196 184 182 175 185 192 183 203 210 173 200 155 205 155 197 179 170 168 133 112 116 36 18 37 21
246 253 216 243 217 243 233 239 232 238 237 231 189 194 194 243 169 191 201 151 181 172 181 194 199 205 220 187 191 180 181 177 182 178 174 174 172 178 175 175 172 171 161 164 163 160 161 159 162 166 164 160 161 171 169 173 168 164 159 157 156 156 162 159 166 168 168 173 177 175 177 181 194 188 196 182 191 191 169 200 224 179 197 166 184 210 188 203 161 136 121 161 155 132 67 12 349
233 232 189 211 198 192 223 214 215 219 239 151 165 138 231 243 107 167 184 186 189 190 183 183 174 198 204 189 189 184 180 181 181 177 177 174 178 180 176 174 169 179 165 170 166 161 161 161 163 168 167 166 166 166 172 171 173 169 163 159 157 154 162 162 164 173 168 176 181 171 176 183 186 192 198 195 191 193 170 191 202 197 179 202 188 82 89 331 358 141 134 186 131 191 194 259 286
219 228 184 208 220 208 225 206 226 216 142 151 200 182 237 70 116 153 172 181 188 189 191 182 179 182 179 195 188 189 184 183 183 182 180 178 179 182 175 176 172 180 173 172 171 160 161 164 164 170 170 170 167 172 171 172 175 174 166 166 161 160 161 167 162 175 171 175 178 184 183 182 183 192 193 198 191 185 187 185 193 192 181 186 180 188 187 192 189 251 169 211 178 172 28 237 259
214 228 203 219 220 219 244 249 228 244 216 119 150 180 238 193 82 162 162 161 182 186 177 172 173 171 178 187 196 189 186 186 185 180 186 181 183 181 177 177 178 181 177 177 170 160 161 162 166 169 170 173 172 176 173 175 174 177 175 171 170 164 167 175 176 173 166 175 183 179 188 184 181 191 183 187 196 183 190 175 184 193 184 186 187 192 190 184 188 221 228 221 322 156 215 281 266
202 217 218 217 220 237 249 278 277 337 275 158 150 143 269 102 278 122 159 167 160 173 170 165 174 177 178 193 192 195 188 185 187 184 187 188 178 183 176 178 182 183 178 180 172 164 170 164 167 172 172 174 174 177 178 180 178 175 177 180 179 172 169 180 170 175 172 181 180 176 187 204 179 163 194 173 181 179 179 184 183 195 186 186 190 204 206 186 185 206 197 203 234 213 185 220 252
178 208 212 220 235 245 272 265 270 137 263 213 132 27 6 88 47 129 153 164 164 174 165 174 179 181 181 188 176 188 208 189 185 188 189 186 182 182 181 182 185 181 179 184 176 171 174 167 170 173 176 177 175 180 178 182 182 179 179 185 187 178 183 182 184 188 183 184 168 194 176 187 176 163 198 178 177 180 180 188 192 183 188 191 190 194 207 189 192 209 192 206 233 245 186 225 279
248 209 207 213 235 270 268 278 258 232 242 185 183 149 189 179 162 174 175 170 182 180 174 178 178 176 178 186 184 188 196 194 190 187 189 187 185 183 184 184 187 183 183 182 177 178 175 179 173 175 178 180 178 181 182 181 183 185 184 188 194 195 193 204 184 177 192 180 172 203 181 183 182 188 190 177 172 177 178 195 183 196 182 192 198 190 197 188 196 224 191 201 223 275 252 258 256
260 259 173 231 198 215 221 254 253 256 247 152 176 152 191 214 148 180 177 184 180 182 170 176 180 182 177 183 191 197 195 188 189 188 187 185 186 188 189 189 190 183 186 180 182 184 178 183 180 181 180 182 185 184 181 183 183 190 184 191 192 198 203 203 203 176 190 187 190 190 195 181 192 180 189 165 182 174 181 184 193 192 185 188 190 196 188 192 197 221 204 220 202 210 241 247 255
243 265 230 216 224 244 231 228 285 296 284 226 166 169 173 285 196 172 173 187 178 179 177 182 183 182 176 180 189 189 191 180 182 190 188 186 186 193 188 192 188 184 185 188 185 187 184 182 178 186 181 181 183 188 178 188 189 192 186 184 192 197 205 206 202 191 193 190 200 184 203 175 199 182 188 183 195 181 185 186 189 200 189 191 187 196 192 183 204 214 216 234 162 198 213 236 258
202 225 237 204 229 241 267 260 250 249 281 275 239 119 96 96 321 216 175 174 183 182 186 183 183 182 178 176 182 185 181 183 185 189 190 187 188 191 188 195 181 174 216 202 183 187 184 183 180 186 183 183 183 189 180 190 191 194 188 191 191 192 200 202 206 194 206 193 196 202 200 196 183 196 185 190 197 188 191 195 197 197 198 187 196 194 198 185 201 203 228 243 147 204 219 237 233
207 212 221 228 210 208 221 237 227 247 253 263 253 149 267 120 62 318 14 153 169 177 177 171 178 173 178 174 177 184 184 174 175 178 183 190 188 192 196 187 189 88 302 211 184 181 183 189 182 184 176 187 185 189 183 181 198 190 199 195 196 194 199 202 207 192 208 196 195 199 197 209 187 196 193 192 193 192 201 194 201 194 199 180 186 195 207 196 198 201 219 206 216 218 228 240 249